Time,TemperatureF,DewpointF,PressureIn,WindDirection,WindDirectionDegrees,WindSpeedMPH,WindSpeedGustMPH,Humidity,HourlyPrecipIn,Conditions,Clouds,dailyrainin,SoftwareType,DateUTC
2013-04-08 00:00:00,56.5,56.1,30.08,ESE,113,0.0,0.0,99,0.00,,,0.00,meteohub,2013-04-08 04:00:00,
2013-04-08 00:01:00,56.5,56.1,30.08,ESE,113,0.0,0.0,99,0.00,,,0.00,meteohub,2013-04-08 04:01:00,
2013-04-08 00:07:00,56.3,55.9,30.08,ESE,113,0.0,0.0,99,0.00,,,0.00,meteohub,2013-04-08 04:07:00,
2013-04-08 00:12:00,56.1,55.8,30.08,ESE,113,0.0,0.0,99,0.00,,,0.00,meteohub,2013-04-08 04:12:00,
2013-04-08 00:17:00,56.1,55.8,30.07,ESE,113,0.0,0.0,99,0.00,,,0.00,meteohub,2013-04-08 04:17:00,
2013-04-08 00:22:00,56.1,55.8,30.07,North,0,0.0,0.0,99,0.00,,,0.00,meteohub,2013-04-08 04:22:00,
2013-04-08 00:27:00,56.1,55.8,30.07,SE,135,0.0,0.0,99,0.00,,,0.00,meteohub,2013-04-08 04:27:00,
2013-04-08 00:32:00,56.1,55.8,30.07,SE,135,0.0,1.0,99,0.00,,,0.00,meteohub,2013-04-08 04:32:00,
2013-04-08 00:38:00,55.9,55.6,30.06,SE,135,0.0,1.0,99,0.00,,,0.00,meteohub,2013-04-08 04:38:00,
2013-04-08 00:43:00,55.8,55.4,30.06,SE,135,0.0,1.0,99,0.00,,,0.00,meteohub,2013-04-08 04:43:00,
2013-04-08 00:49:00,55.6,55.2,30.07,West,270,1.0,0.0,99,0.00,,,0.00,meteohub,2013-04-08 04:49:00,
2013-04-08 00:54:00,55.8,55.4,30.07,North,0,0.0,1.0,99,0.00,,,0.00,meteohub,2013-04-08 04:54:00,
2013-04-08 01:00:00,55.6,55.2,30.06,North,0,0.0,1.0,99,0.00,,,0.00,meteohub,2013-04-08 05:00:00,
2013-04-08 01:05:00,55.2,54.9,30.06,North,0,0.0,0.0,99,0.00,,,0.00,meteohub,2013-04-08 05:05:00,
2013-04-08 01:11:00,55.0,54.7,30.06,North,0,0.0,0.0,99,0.00,,,0.00,meteohub,2013-04-08 05:11:00,
2013-04-08 01:16:00,55.2,54.9,30.07,North,0,0.0,0.0,99,0.00,,,0.00,meteohub,2013-04-08 05:16:00,
2013-04-08 01:21:00,55.0,54.7,30.06,North,0,0.0,0.0,99,0.00,,,0.00,meteohub,2013-04-08 05:21:00,
2013-04-08 01:27:00,54.9,54.5,30.06,North,0,0.0,0.0,99,0.00,,,0.00,meteohub,2013-04-08 05:27:00,
2013-04-08 01:32:00,54.7,54.3,30.06,North,0,0.0,0.0,99,0.00,,,0.00,meteohub,2013-04-08 05:32:00,
2013-04-08 01:37:00,54.5,54.1,30.06,North,0,0.0,0.0,99,0.00,,,0.00,meteohub,2013-04-08 05:37:00,
2013-04-08 01:42:00,54.5,54.1,30.06,East,90,0.0,0.0,99,0.00,,,0.00,meteohub,2013-04-08 05:42:00,
2013-04-08 01:47:00,54.5,54.1,30.06,East,90,0.0,0.0,99,0.00,,,0.00,meteohub,2013-04-08 05:47:00,
2013-04-08 01:52:00,54.3,54.0,30.06,East,90,0.0,0.0,99,0.00,,,0.00,meteohub,2013-04-08 05:52:00,
2013-04-08 01:57:00,54.3,54.0,30.06,NW,315,0.0,0.0,99,0.00,,,0.00,meteohub,2013-04-08 05:57:00,
2013-04-08 02:02:00,54.3,54.0,30.05,NW,315,0.0,0.0,99,0.00,,,0.00,meteohub,2013-04-08 06:02:00,
2013-04-08 02:08:00,54.3,54.0,30.05,NW,315,0.0,0.0,99,0.00,,,0.00,meteohub,2013-04-08 06:08:00,
2013-04-08 02:13:00,54.3,54.0,30.05,NW,315,0.0,0.0,99,0.00,,,0.00,meteohub,2013-04-08 06:13:00,
2013-04-08 02:18:00,54.1,53.8,30.05,NW,315,0.0,0.0,99,0.00,,,0.00,meteohub,2013-04-08 06:18:00,
2013-04-08 02:24:00,53.8,53.4,30.05,NW,315,0.0,0.0,99,0.00,,,0.00,meteohub,2013-04-08 06:24:00,
2013-04-08 02:29:00,53.8,53.4,30.05,NW,315,0.0,0.0,99,0.00,,,0.00,meteohub,2013-04-08 06:29:00,
2013-04-08 02:34:00,53.8,53.4,30.04,NW,315,0.0,0.0,99,0.00,,,0.00,meteohub,2013-04-08 06:34:00,
2013-04-08 02:39:00,53.6,53.2,30.04,NW,315,1.0,0.0,99,0.00,,,0.00,meteohub,2013-04-08 06:39:00,
2013-04-08 02:45:00,53.6,53.2,30.04,NW,315,0.0,1.0,99,0.00,,,0.00,meteohub,2013-04-08 06:45:00,
2013-04-08 02:50:00,53.6,53.2,30.04,NW,315,0.0,1.0,99,0.00,,,0.00,meteohub,2013-04-08 06:50:00,
2013-04-08 02:55:00,53.6,53.2,30.04,NW,315,0.0,1.0,99,0.00,,,0.00,meteohub,2013-04-08 06:55:00,
2013-04-08 03:00:00,53.2,52.9,30.04,NW,315,0.0,0.0,99,0.00,,,0.00,meteohub,2013-04-08 07:00:00,
2013-04-08 03:06:00,52.9,52.5,30.04,NW,315,0.0,0.0,99,0.00,,,0.00,meteohub,2013-04-08 07:06:00,
2013-04-08 03:11:00,52.9,52.5,30.04,NW,315,0.0,0.0,99,0.00,,,0.00,meteohub,2013-04-08 07:11:00,
2013-04-08 03:17:00,52.7,52.3,30.04,NW,315,0.0,0.0,99,0.00,,,0.00,meteohub,2013-04-08 07:17:00,
2013-04-08 03:22:00,52.9,52.5,30.04,East,90,0.0,0.0,99,0.00,,,0.00,meteohub,2013-04-08 07:22:00,
2013-04-08 03:27:00,52.9,52.5,30.03,East,90,0.0,0.0,99,0.00,,,0.00,meteohub,2013-04-08 07:27:00,
2013-04-08 03:32:00,52.9,52.5,30.03,East,90,0.0,0.0,99,0.00,,,0.00,meteohub,2013-04-08 07:32:00,
2013-04-08 03:37:00,52.7,52.3,30.03,East,90,0.0,0.0,99,0.00,,,0.00,meteohub,2013-04-08 07:37:00,
2013-04-08 03:42:00,52.7,52.3,30.04,East,90,0.0,0.0,99,0.00,,,0.00,meteohub,2013-04-08 07:42:00,
2013-04-08 03:47:00,52.7,52.3,30.03,East,90,0.0,0.0,99,0.00,,,0.00,meteohub,2013-04-08 07:47:00,
2013-04-08 03:52:00,52.7,52.3,30.03,East,90,0.0,0.0,99,0.00,,,0.00,meteohub,2013-04-08 07:52:00,
2013-04-08 03:58:00,52.7,52.3,30.04,East,90,0.0,0.0,99,0.00,,,0.00,meteohub,2013-04-08 07:58:00,
2013-04-08 04:03:00,52.5,52.2,30.04,East,90,0.0,0.0,99,0.00,,,0.00,meteohub,2013-04-08 08:03:00,
2013-04-08 04:08:00,52.3,52.0,30.04,East,90,0.0,0.0,99,0.00,,,0.00,meteohub,2013-04-08 08:08:00,
2013-04-08 04:14:00,52.2,51.8,30.04,East,90,0.0,0.0,99,0.00,,,0.00,meteohub,2013-04-08 08:14:00,
2013-04-08 04:19:00,52.0,51.6,30.04,East,90,0.0,0.0,99,0.00,,,0.00,meteohub,2013-04-08 08:19:00,
2013-04-08 04:24:00,52.0,51.6,30.04,East,90,0.0,0.0,99,0.00,,,0.00,meteohub,2013-04-08 08:24:00,
2013-04-08 04:29:00,52.0,51.6,30.04,East,90,0.0,0.0,99,0.00,,,0.00,meteohub,2013-04-08 08:29:00,
2013-04-08 04:34:00,51.8,51.4,30.04,East,90,0.0,0.0,99,0.00,,,0.00,meteohub,2013-04-08 08:34:00,
2013-04-08 04:40:00,51.8,51.4,30.04,East,90,0.0,0.0,99,0.00,,,0.00,meteohub,2013-04-08 08:40:00,
2013-04-08 04:45:00,51.6,51.3,30.04,East,90,0.0,0.0,99,0.00,,,0.00,meteohub,2013-04-08 08:45:00,
2013-04-08 04:50:00,51.6,51.3,30.04,East,90,0.0,0.0,99,0.00,,,0.00,meteohub,2013-04-08 08:50:00,
2013-04-08 04:55:00,51.4,51.1,30.04,East,90,0.0,0.0,99,0.00,,,0.00,meteohub,2013-04-08 08:55:00,
2013-04-08 05:01:00,51.4,51.1,30.04,East,90,0.0,0.0,99,0.00,,,0.00,meteohub,2013-04-08 09:01:00,
2013-04-08 05:07:00,51.3,50.9,30.05,East,90,0.0,0.0,99,0.00,,,0.00,meteohub,2013-04-08 09:07:00,
2013-04-08 05:12:00,51.1,50.7,30.04,East,90,0.0,0.0,99,0.00,,,0.00,meteohub,2013-04-08 09:12:00,
2013-04-08 05:17:00,51.1,50.7,30.05,East,90,0.0,0.0,99,0.00,,,0.00,meteohub,2013-04-08 09:17:00,
2013-04-08 05:22:00,51.1,50.7,30.05,East,90,0.0,0.0,99,0.00,,,0.00,meteohub,2013-04-08 09:22:00,
2013-04-08 05:27:00,51.3,50.9,30.05,East,90,0.0,0.0,99,0.00,,,0.00,meteohub,2013-04-08 09:27:00,
2013-04-08 05:32:00,51.3,50.9,30.05,East,90,0.0,0.0,99,0.00,,,0.00,meteohub,2013-04-08 09:32:00,
2013-04-08 05:37:00,51.3,50.9,30.05,East,90,0.0,0.0,99,0.00,,,0.00,meteohub,2013-04-08 09:37:00,
2013-04-08 05:42:00,51.3,50.9,30.05,East,90,0.0,0.0,99,0.00,,,0.00,meteohub,2013-04-08 09:42:00,
2013-04-08 05:47:00,51.3,50.9,30.06,East,90,0.0,0.0,99,0.00,,,0.00,meteohub,2013-04-08 09:47:00,
2013-04-08 05:52:00,50.9,50.5,30.06,East,90,0.0,0.0,99,0.00,,,0.00,meteohub,2013-04-08 09:52:00,
2013-04-08 05:57:00,50.9,50.5,30.06,NW,315,0.0,0.0,99,0.00,,,0.00,meteohub,2013-04-08 09:57:00,
2013-04-08 06:03:00,50.9,50.5,30.06,NW,315,0.0,0.0,99,0.00,,,0.00,meteohub,2013-04-08 10:03:00,
2013-04-08 06:08:00,50.9,50.5,30.06,NW,315,0.0,0.0,99,0.00,,,0.00,meteohub,2013-04-08 10:08:00,
2013-04-08 06:13:00,51.1,50.7,30.06,NW,315,0.0,0.0,99,0.00,,,0.00,meteohub,2013-04-08 10:13:00,
2013-04-08 06:18:00,51.1,50.7,30.06,NW,315,0.0,0.0,99,0.00,,,0.00,meteohub,2013-04-08 10:18:00,
2013-04-08 06:23:00,51.1,50.7,30.06,NW,315,0.0,0.0,99,0.00,,,0.00,meteohub,2013-04-08 10:23:00,
2013-04-08 06:29:00,51.1,50.7,30.06,NW,315,0.0,0.0,99,0.00,,,0.00,meteohub,2013-04-08 10:29:00,
2013-04-08 06:34:00,51.1,50.7,30.07,NW,315,0.0,0.0,99,0.00,,,0.00,meteohub,2013-04-08 10:34:00,
2013-04-08 06:39:00,51.1,50.7,30.06,NW,315,0.0,0.0,99,0.00,,,0.00,meteohub,2013-04-08 10:39:00,
2013-04-08 06:44:00,51.1,50.7,30.06,NW,315,0.0,0.0,99,0.00,,,0.00,meteohub,2013-04-08 10:44:00,
2013-04-08 06:50:00,51.3,50.9,30.06,NW,315,0.0,0.0,99,0.00,,,0.00,meteohub,2013-04-08 10:50:00,
2013-04-08 06:55:00,51.3,50.9,30.07,NW,315,0.0,0.0,99,0.00,,,0.00,meteohub,2013-04-08 10:55:00,
2013-04-08 07:01:00,51.3,50.9,30.07,NW,315,0.0,0.0,99,0.00,,,0.00,meteohub,2013-04-08 11:01:00,
2013-04-08 07:06:00,51.3,50.9,30.07,East,90,0.0,0.0,99,0.00,,,0.00,meteohub,2013-04-08 11:06:00,
2013-04-08 07:11:00,51.3,50.9,30.07,East,90,0.0,0.0,99,0.00,,,0.00,meteohub,2013-04-08 11:11:00,
2013-04-08 07:17:00,51.3,50.9,30.08,East,90,0.0,0.0,99,0.00,,,0.00,meteohub,2013-04-08 11:17:00,
2013-04-08 07:22:00,51.3,50.9,30.08,East,90,0.0,0.0,99,0.00,,,0.00,meteohub,2013-04-08 11:22:00,
2013-04-08 07:27:00,51.6,51.3,30.08,East,90,0.0,0.0,99,0.00,,,0.00,meteohub,2013-04-08 11:27:00,
2013-04-08 07:33:00,52.0,51.6,30.08,East,90,0.0,0.0,99,0.00,,,0.00,meteohub,2013-04-08 11:33:00,
2013-04-08 07:38:00,52.5,52.2,30.08,East,90,0.0,0.0,99,0.00,,,0.00,meteohub,2013-04-08 11:38:00,
2013-04-08 07:44:00,53.1,52.7,30.09,East,90,0.0,0.0,99,0.00,,,0.00,meteohub,2013-04-08 11:44:00,
2013-04-08 07:49:00,53.8,53.4,30.09,East,90,0.0,0.0,99,0.00,,,0.00,meteohub,2013-04-08 11:49:00,
2013-04-08 07:54:00,54.7,54.3,30.09,East,90,0.0,0.0,99,0.00,,,0.00,meteohub,2013-04-08 11:54:00,
2013-04-08 08:00:00,56.3,55.9,30.09,East,90,0.0,0.0,99,0.00,,,0.00,meteohub,2013-04-08 12:00:00,
2013-04-08 08:05:00,58.1,57.7,30.09,East,90,0.0,0.0,99,0.00,,,0.00,meteohub,2013-04-08 12:05:00,
2013-04-08 08:10:00,59.5,59.2,30.09,East,90,0.0,1.0,99,0.00,,,0.00,meteohub,2013-04-08 12:10:00,
2013-04-08 08:16:00,61.2,60.8,30.09,South,180,0.0,1.0,99,0.00,,,0.00,meteohub,2013-04-08 12:16:00,
2013-04-08 08:21:00,62.4,62.1,30.09,South,180,0.0,1.0,99,0.00,,,0.00,meteohub,2013-04-08 12:21:00,
2013-04-08 08:26:00,63.7,63.3,30.09,North,0,1.0,1.0,99,0.00,,,0.00,meteohub,2013-04-08 12:26:00,
2013-04-08 08:31:00,64.9,64.6,30.10,North,0,1.0,1.0,99,0.00,,,0.00,meteohub,2013-04-08 12:31:00,
2013-04-08 08:37:00,66.7,66.4,30.10,SW,225,0.0,1.0,99,0.00,,,0.00,meteohub,2013-04-08 12:37:00,
2013-04-08 08:42:00,68.5,68.2,30.10,SE,135,0.0,1.0,99,0.00,,,0.00,meteohub,2013-04-08 12:42:00,
2013-04-08 08:47:00,69.8,69.4,30.10,SE,135,0.0,1.0,99,0.00,,,0.00,meteohub,2013-04-08 12:47:00,
2013-04-08 08:52:00,71.4,71.1,30.10,SE,135,0.0,1.0,99,0.00,,,0.00,meteohub,2013-04-08 12:52:00,
2013-04-08 08:57:00,72.0,71.6,30.10,SE,135,1.0,1.0,99,0.00,,,0.00,meteohub,2013-04-08 12:57:00,
2013-04-08 09:02:00,73.6,73.2,30.10,South,180,1.0,2.0,99,0.00,,,0.00,meteohub,2013-04-08 13:02:00,
2013-04-08 09:07:00,74.3,73.9,30.10,SSW,203,1.0,2.0,99,0.00,,,0.00,meteohub,2013-04-08 13:07:00,
2013-04-08 09:13:00,74.7,74.3,30.10,South,180,0.0,2.0,99,0.00,,,0.00,meteohub,2013-04-08 13:13:00,
2013-04-08 09:18:00,75.2,74.8,30.10,South,180,0.0,1.0,99,0.00,,,0.00,meteohub,2013-04-08 13:18:00,
2013-04-08 09:23:00,75.9,75.6,30.10,West,270,2.0,2.0,99,0.00,,,0.00,meteohub,2013-04-08 13:23:00,
2013-04-08 09:28:00,75.9,75.4,30.10,South,180,2.0,2.0,98,0.00,,,0.00,meteohub,2013-04-08 13:28:00,
2013-04-08 09:33:00,76.3,75.0,30.10,West,270,2.0,2.0,96,0.00,,,0.00,meteohub,2013-04-08 13:33:00,
2013-04-08 09:39:00,76.5,74.7,30.10,NW,315,2.0,2.0,94,0.00,,,0.00,meteohub,2013-04-08 13:39:00,
2013-04-08 09:44:00,76.6,74.5,30.10,WNW,293,2.0,2.0,93,0.00,,,0.00,meteohub,2013-04-08 13:44:00,
2013-04-08 09:49:00,77.0,74.1,30.10,NW,315,2.0,2.0,91,0.00,,,0.00,meteohub,2013-04-08 13:49:00,
2013-04-08 09:55:00,77.7,74.5,30.10,SSW,203,3.0,3.0,90,0.00,,,0.00,meteohub,2013-04-08 13:55:00,
2013-04-08 10:00:00,77.7,74.5,30.10,SE,135,2.0,3.0,90,0.00,,,0.00,meteohub,2013-04-08 14:00:00,
2013-04-08 10:05:00,78.1,74.5,30.10,NW,315,3.0,4.0,89,0.00,,,0.00,meteohub,2013-04-08 14:05:00,
2013-04-08 10:10:00,78.1,74.8,30.10,NW,315,3.0,4.0,90,0.00,,,0.00,meteohub,2013-04-08 14:10:00,
2013-04-08 10:15:00,78.4,74.7,30.09,West,270,1.0,5.0,88,0.00,,,0.00,meteohub,2013-04-08 14:15:00,
2013-04-08 10:20:00,79.2,74.3,30.10,West,270,4.0,5.0,85,0.00,,,0.00,meteohub,2013-04-08 14:20:00,
2013-04-08 10:25:00,78.4,74.3,30.10,SW,225,3.0,5.0,87,0.00,,,0.00,meteohub,2013-04-08 14:25:00,
2013-04-08 10:31:00,78.4,73.9,30.11,WNW,293,4.0,8.0,86,0.00,,,0.00,meteohub,2013-04-08 14:31:00,
2013-04-08 10:36:00,78.3,74.1,30.10,NW,315,8.0,10.0,87,0.00,,,0.00,meteohub,2013-04-08 14:36:00,
2013-04-08 10:41:00,78.3,73.4,30.11,East,90,4.0,10.0,85,0.00,,,0.00,meteohub,2013-04-08 14:41:00,
2013-04-08 10:47:00,79.5,73.6,30.11,SSW,203,3.0,10.0,82,0.00,,,0.00,meteohub,2013-04-08 14:47:00,
2013-04-08 10:52:00,80.2,73.9,30.11,SE,135,4.0,8.0,81,0.00,,,0.00,meteohub,2013-04-08 14:52:00,
2013-04-08 10:57:00,81.0,74.1,30.11,NW,315,3.0,7.0,80,0.00,,,0.00,meteohub,2013-04-08 14:57:00,
2013-04-08 11:02:00,80.8,72.9,30.11,WNW,293,5.0,7.0,77,0.00,,,0.00,meteohub,2013-04-08 15:02:00,
2013-04-08 11:07:00,80.6,73.9,30.11,NW,315,3.0,7.0,80,0.00,,,0.00,meteohub,2013-04-08 15:07:00,
2013-04-08 11:13:00,81.5,73.6,30.11,West,270,6.0,7.0,77,0.00,,,0.00,meteohub,2013-04-08 15:13:00,
2013-04-08 11:18:00,80.6,72.3,30.11,West,270,5.0,7.0,76,0.00,,,0.00,meteohub,2013-04-08 15:18:00,
2013-04-08 11:23:00,80.4,72.1,30.11,NW,315,4.0,7.0,76,0.00,,,0.00,meteohub,2013-04-08 15:23:00,
2013-04-08 11:29:00,81.3,73.4,30.11,WNW,293,5.0,8.0,77,0.00,,,0.00,meteohub,2013-04-08 15:29:00,
2013-04-08 11:34:00,80.8,72.9,30.11,North,0,3.0,8.0,77,0.00,,,0.00,meteohub,2013-04-08 15:34:00,
2013-04-08 11:39:00,81.5,73.2,30.10,East,90,2.0,8.0,76,0.00,,,0.00,meteohub,2013-04-08 15:39:00,
2013-04-08 11:44:00,81.1,73.2,30.10,West,270,5.0,7.0,77,0.00,,,0.00,meteohub,2013-04-08 15:44:00,
2013-04-08 11:50:00,81.1,71.6,30.10,West,270,5.0,7.0,73,0.00,,,0.00,meteohub,2013-04-08 15:50:00,
2013-04-08 11:55:00,81.5,72.0,30.10,SE,135,2.0,7.0,73,0.00,,,0.00,meteohub,2013-04-08 15:55:00,
2013-04-08 12:00:00,81.7,71.8,30.09,SW,225,4.0,7.0,72,0.00,,,0.00,meteohub,2013-04-08 16:00:00,
2013-04-08 12:06:00,82.4,72.5,30.10,NW,315,4.0,6.0,72,0.00,,,0.00,meteohub,2013-04-08 16:06:00,
2013-04-08 12:11:00,81.7,70.2,30.09,East,90,5.0,6.0,68,0.00,,,0.00,meteohub,2013-04-08 16:11:00,
2013-04-08 12:16:00,81.7,69.3,30.09,SE,135,4.0,8.0,66,0.00,,,0.00,meteohub,2013-04-08 16:16:00,
2013-04-08 12:21:00,82.4,71.2,30.09,SW,225,5.0,8.0,69,0.00,,,0.00,meteohub,2013-04-08 16:21:00,
2013-04-08 12:27:00,83.3,69.8,30.09,East,90,5.0,10.0,64,0.00,,,0.00,meteohub,2013-04-08 16:27:00,
2013-04-08 12:32:00,83.5,66.6,30.09,South,180,5.0,10.0,57,0.00,,,0.00,meteohub,2013-04-08 16:32:00,
2013-04-08 12:37:00,83.5,69.1,30.09,SE,135,3.0,10.0,62,0.00,,,0.00,meteohub,2013-04-08 16:37:00,
2013-04-08 12:42:00,82.9,69.4,30.09,West,270,4.0,8.0,64,0.00,,,0.00,meteohub,2013-04-08 16:42:00,
2013-04-08 12:47:00,83.1,68.7,30.09,NE,45,2.0,6.0,62,0.00,,,0.00,meteohub,2013-04-08 16:47:00,
2013-04-08 12:52:00,82.0,67.3,30.09,SE,135,6.0,6.0,61,0.00,,,0.00,meteohub,2013-04-08 16:52:00,
2013-04-08 12:57:00,80.8,66.9,30.08,NW,315,3.0,6.0,63,0.00,,,0.00,meteohub,2013-04-08 16:57:00,
2013-04-08 13:02:00,81.5,68.5,30.08,West,270,4.0,6.0,65,0.00,,,0.00,meteohub,2013-04-08 17:02:00,
2013-04-08 13:07:00,80.6,68.5,30.08,South,180,3.0,7.0,67,0.00,,,0.00,meteohub,2013-04-08 17:07:00,
2013-04-08 13:12:00,80.4,68.9,30.08,East,90,4.0,7.0,68,0.00,,,0.00,meteohub,2013-04-08 17:12:00,
2013-04-08 13:18:00,79.9,70.9,30.08,SE,135,5.0,10.0,74,0.00,,,0.00,meteohub,2013-04-08 17:18:00,
2013-04-08 13:23:00,81.0,72.3,30.08,SE,135,6.0,10.0,75,0.00,,,0.00,meteohub,2013-04-08 17:23:00,
2013-04-08 13:28:00,83.1,72.7,30.07,SE,135,8.0,9.0,71,0.00,,,0.00,meteohub,2013-04-08 17:28:00,
2013-04-08 13:33:00,83.1,72.7,30.07,East,90,11.0,11.0,71,0.00,,,0.00,meteohub,2013-04-08 17:33:00,
2013-04-08 13:38:00,81.5,71.2,30.07,North,0,3.0,9.0,71,0.00,,,0.00,meteohub,2013-04-08 17:38:00,
2013-04-08 13:43:00,81.9,72.3,30.07,East,90,7.0,11.0,73,0.00,,,0.00,meteohub,2013-04-08 17:43:00,
2013-04-08 13:48:00,80.8,71.2,30.07,SE,135,5.0,11.0,73,0.00,,,0.00,meteohub,2013-04-08 17:48:00,
2013-04-08 13:54:00,81.1,71.6,30.07,NW,315,7.0,11.0,73,0.00,,,0.00,meteohub,2013-04-08 17:54:00,
2013-04-08 13:59:00,81.3,70.2,30.07,NW,315,4.0,11.0,69,0.00,,,0.00,meteohub,2013-04-08 17:59:00,
2013-04-08 14:05:00,81.5,70.7,30.06,West,270,10.0,11.0,70,0.00,,,0.00,meteohub,2013-04-08 18:05:00,
2013-04-08 14:10:00,84.2,71.2,30.06,SE,135,4.0,10.0,65,0.00,,,0.00,meteohub,2013-04-08 18:10:00,
2013-04-08 14:15:00,86.4,70.9,30.06,NW,315,4.0,11.0,60,0.00,,,0.00,meteohub,2013-04-08 18:15:00,
2013-04-08 14:20:00,84.4,68.9,30.06,West,270,2.0,10.0,60,0.00,,,0.00,meteohub,2013-04-08 18:20:00,
2013-04-08 14:26:00,83.1,69.3,30.06,East,90,2.0,8.0,63,0.00,,,0.00,meteohub,2013-04-08 18:26:00,
2013-04-08 14:32:00,82.6,68.7,30.06,NE,45,2.0,8.0,63,0.00,,,0.00,meteohub,2013-04-08 18:32:00,
2013-04-08 14:37:00,84.4,70.0,30.06,East,90,6.0,12.0,62,0.00,,,0.00,meteohub,2013-04-08 18:37:00,
2013-04-08 14:42:00,84.7,70.3,30.05,NW,315,2.0,12.0,62,0.00,,,0.00,meteohub,2013-04-08 18:42:00,
2013-04-08 14:47:00,84.6,69.6,30.06,NE,45,8.0,12.0,61,0.00,,,0.00,meteohub,2013-04-08 18:47:00,
2013-04-08 14:52:00,83.5,69.1,30.05,WSW,248,5.0,11.0,62,0.00,,,0.00,meteohub,2013-04-08 18:52:00,
2013-04-08 14:57:00,83.1,69.6,30.05,NW,315,4.0,11.0,64,0.00,,,0.00,meteohub,2013-04-08 18:57:00,
2013-04-08 15:02:00,83.3,70.3,30.05,WNW,293,6.0,11.0,65,0.00,,,0.00,meteohub,2013-04-08 19:02:00,
2013-04-08 15:07:00,83.3,70.7,30.05,NW,315,10.0,10.0,66,0.00,,,0.00,meteohub,2013-04-08 19:07:00,
2013-04-08 15:12:00,82.9,70.3,30.05,WSW,248,10.0,11.0,66,0.00,,,0.00,meteohub,2013-04-08 19:12:00,
2013-04-08 15:17:00,81.5,69.4,30.04,NW,315,5.0,11.0,67,0.00,,,0.00,meteohub,2013-04-08 19:17:00,
2013-04-08 15:22:00,81.1,70.9,30.05,West,270,4.0,11.0,71,0.00,,,0.00,meteohub,2013-04-08 19:22:00,
2013-04-08 15:27:00,82.2,71.4,30.04,SE,135,5.0,10.0,70,0.00,,,0.00,meteohub,2013-04-08 19:27:00,
2013-04-08 15:32:00,82.9,70.3,30.04,SW,225,4.0,8.0,66,0.00,,,0.00,meteohub,2013-04-08 19:32:00,
2013-04-08 15:38:00,84.7,72.1,30.04,WNW,293,4.0,8.0,66,0.00,,,0.00,meteohub,2013-04-08 19:38:00,
2013-04-08 15:43:00,85.8,72.1,30.04,SW,225,4.0,8.0,64,0.00,,,0.00,meteohub,2013-04-08 19:43:00,
2013-04-08 15:49:00,86.2,72.1,30.04,East,90,7.0,8.0,63,0.00,,,0.00,meteohub,2013-04-08 19:49:00,
2013-04-08 15:54:00,86.2,72.1,30.04,NW,315,8.0,11.0,63,0.00,,,0.00,meteohub,2013-04-08 19:54:00,
2013-04-08 16:00:00,86.4,73.2,30.04,West,270,5.0,11.0,65,0.00,,,0.00,meteohub,2013-04-08 20:00:00,
2013-04-08 16:05:00,87.3,72.7,30.04,NE,45,2.0,11.0,62,0.00,,,0.00,meteohub,2013-04-08 20:05:00,
2013-04-08 16:10:00,87.3,71.6,30.03,ENE,68,4.0,10.0,60,0.00,,,0.00,meteohub,2013-04-08 20:10:00,
2013-04-08 16:15:00,88.0,71.8,30.03,South,180,3.0,10.0,59,0.00,,,0.00,meteohub,2013-04-08 20:15:00,
2013-04-08 16:21:00,88.3,71.6,30.03,WSW,248,4.0,10.0,58,0.00,,,0.00,meteohub,2013-04-08 20:21:00,
2013-04-08 16:27:00,87.1,70.5,30.03,SE,135,6.0,8.0,58,0.00,,,0.00,meteohub,2013-04-08 20:27:00,
2013-04-08 16:32:00,86.9,71.4,30.03,NW,315,4.0,8.0,60,0.00,,,0.00,meteohub,2013-04-08 20:32:00,
2013-04-08 16:37:00,87.3,71.2,30.03,NW,315,11.0,11.0,59,0.00,,,0.00,meteohub,2013-04-08 20:37:00,
2013-04-08 16:42:00,86.9,70.3,30.03,South,180,6.0,11.0,58,0.00,,,0.00,meteohub,2013-04-08 20:42:00,
2013-04-08 16:47:00,87.3,70.2,30.03,SW,225,6.0,11.0,57,0.00,,,0.00,meteohub,2013-04-08 20:47:00,
2013-04-08 16:53:00,86.7,69.6,30.03,West,270,4.0,11.0,57,0.00,,,0.00,meteohub,2013-04-08 20:53:00,
2013-04-08 16:58:00,87.6,71.1,30.03,ESE,113,5.0,9.0,58,0.00,,,0.00,meteohub,2013-04-08 20:58:00,
2013-04-08 17:03:00,87.1,70.5,30.03,SE,135,2.0,9.0,58,0.00,,,0.00,meteohub,2013-04-08 21:03:00,
2013-04-08 17:08:00,87.6,71.6,30.03,NNE,23,8.0,9.0,59,0.00,,,0.00,meteohub,2013-04-08 21:08:00,
2013-04-08 17:14:00,86.4,70.3,30.02,SE,135,8.0,8.0,59,0.00,,,0.00,meteohub,2013-04-08 21:14:00,
2013-04-08 17:19:00,85.6,70.7,30.03,West,270,4.0,10.0,61,0.00,,,0.00,meteohub,2013-04-08 21:19:00,
2013-04-08 17:24:00,85.8,70.3,30.03,NNE,23,4.0,10.0,60,0.00,,,0.00,meteohub,2013-04-08 21:24:00,
2013-04-08 17:29:00,83.3,69.8,30.03,West,270,9.0,10.0,64,0.00,,,0.00,meteohub,2013-04-08 21:29:00,
2013-04-08 17:34:00,81.3,70.5,30.03,SE,135,6.0,6.0,70,0.00,,,0.00,meteohub,2013-04-08 21:34:00,
2013-04-08 17:40:00,80.4,69.3,30.03,West,270,3.0,10.0,69,0.00,,,0.00,meteohub,2013-04-08 21:40:00,
2013-04-08 17:45:00,80.1,68.9,30.03,NW,315,9.0,10.0,69,0.00,,,0.00,meteohub,2013-04-08 21:45:00,
2013-04-08 17:50:00,79.5,68.0,30.03,North,0,2.0,9.0,68,0.00,,,0.00,meteohub,2013-04-08 21:50:00,
2013-04-08 17:55:00,79.3,67.5,30.03,SE,135,6.0,9.0,67,0.00,,,0.00,meteohub,2013-04-08 21:55:00,
2013-04-08 18:00:00,79.2,68.2,30.04,SE,135,4.0,9.0,69,0.00,,,0.00,meteohub,2013-04-08 22:00:00,
2013-04-08 18:05:00,78.8,67.8,30.03,West,270,6.0,8.0,69,0.00,,,0.00,meteohub,2013-04-08 22:05:00,
2013-04-08 18:11:00,79.2,68.5,30.03,South,180,6.0,8.0,70,0.00,,,0.00,meteohub,2013-04-08 22:11:00,
2013-04-08 18:16:00,79.7,69.4,30.03,West,270,4.0,7.0,71,0.00,,,0.00,meteohub,2013-04-08 22:16:00,
2013-04-08 18:21:00,80.2,70.0,30.03,East,90,5.0,6.0,71,0.00,,,0.00,meteohub,2013-04-08 22:21:00,
2013-04-08 18:27:00,80.2,69.1,30.03,NW,315,4.0,6.0,69,0.00,,,0.00,meteohub,2013-04-08 22:27:00,
2013-04-08 18:32:00,79.9,69.6,30.03,East,90,5.0,5.0,71,0.00,,,0.00,meteohub,2013-04-08 22:32:00,
2013-04-08 18:37:00,79.5,68.0,30.03,East,90,4.0,6.0,68,0.00,,,0.00,meteohub,2013-04-08 22:37:00,
2013-04-08 18:42:00,79.2,67.6,30.04,NNE,23,5.0,6.0,68,0.00,,,0.00,meteohub,2013-04-08 22:42:00,
2013-04-08 18:47:00,79.0,68.4,30.04,North,0,3.0,8.0,70,0.00,,,0.00,meteohub,2013-04-08 22:47:00,
2013-04-08 18:52:00,78.8,68.5,30.04,NW,315,4.0,8.0,71,0.00,,,0.00,meteohub,2013-04-08 22:52:00,
2013-04-08 18:57:00,79.0,69.6,30.04,SE,135,4.0,8.0,73,0.00,,,0.00,meteohub,2013-04-08 22:57:00,
2013-04-08 19:03:00,78.4,69.4,30.04,SW,225,2.0,6.0,74,0.00,,,0.00,meteohub,2013-04-08 23:03:00,
2013-04-08 19:08:00,78.3,69.6,30.04,ENE,68,2.0,6.0,75,0.00,,,0.00,meteohub,2013-04-08 23:08:00,
2013-04-08 19:13:00,77.5,69.8,30.04,SW,225,2.0,6.0,77,0.00,,,0.00,meteohub,2013-04-08 23:13:00,
2013-04-08 19:18:00,76.5,69.1,30.04,SE,135,2.0,4.0,78,0.00,,,0.00,meteohub,2013-04-08 23:18:00,
2013-04-08 19:24:00,75.0,68.7,30.04,NE,45,2.0,4.0,81,0.00,,,0.00,meteohub,2013-04-08 23:24:00,
2013-04-08 19:29:00,73.8,68.9,30.04,East,90,2.0,4.0,85,0.00,,,0.00,meteohub,2013-04-08 23:29:00,
2013-04-08 19:34:00,72.7,69.3,30.04,SW,225,6.0,6.0,89,0.00,,,0.00,meteohub,2013-04-08 23:34:00,
2013-04-08 19:39:00,71.8,69.1,30.04,SE,135,2.0,4.0,91,0.00,,,0.00,meteohub,2013-04-08 23:39:00,
2013-04-08 19:44:00,71.1,68.9,30.04,West,270,3.0,6.0,93,0.00,,,0.00,meteohub,2013-04-08 23:44:00,
2013-04-08 19:50:00,70.5,69.3,30.04,SE,135,2.0,7.0,96,0.00,,,0.00,meteohub,2013-04-08 23:50:00,
2013-04-08 19:55:00,70.0,69.4,30.04,West,270,2.0,7.0,98,0.00,,,0.00,meteohub,2013-04-08 23:55:00,
2013-04-08 20:00:00,69.4,69.1,30.05,East,90,4.0,6.0,99,0.00,,,0.00,meteohub,2013-04-09 00:00:00,
2013-04-08 20:05:00,69.1,68.7,30.04,SE,135,4.0,6.0,99,0.00,,,0.00,meteohub,2013-04-09 00:05:00,
2013-04-08 20:11:00,68.7,68.4,30.05,WNW,293,2.0,6.0,99,0.00,,,0.00,meteohub,2013-04-09 00:11:00,
2013-04-08 20:16:00,68.4,68.0,30.04,East,90,2.0,4.0,99,0.00,,,0.00,meteohub,2013-04-09 00:16:00,
2013-04-08 20:21:00,68.0,67.6,30.05,SE,135,1.0,4.0,99,0.00,,,0.00,meteohub,2013-04-09 00:21:00,
2013-04-08 20:26:00,68.0,67.6,30.04,South,180,2.0,4.0,99,0.00,,,0.00,meteohub,2013-04-09 00:26:00,
2013-04-08 20:32:00,67.6,67.3,30.05,East,90,1.0,3.0,99,0.00,,,0.00,meteohub,2013-04-09 00:32:00,
2013-04-08 20:37:00,67.3,66.9,30.05,NE,45,1.0,4.0,99,0.00,,,0.00,meteohub,2013-04-09 00:37:00,
2013-04-08 20:42:00,67.1,66.7,30.05,North,0,2.0,4.0,99,0.00,,,0.00,meteohub,2013-04-09 00:42:00,
2013-04-08 20:47:00,66.7,66.4,30.05,South,180,2.0,4.0,99,0.00,,,0.00,meteohub,2013-04-09 00:47:00,
2013-04-08 20:52:00,66.6,66.2,30.05,SE,135,0.0,4.0,99,0.00,,,0.00,meteohub,2013-04-09 00:52:00,
2013-04-08 20:57:00,66.0,65.7,30.05,North,0,1.0,3.0,99,0.00,,,0.00,meteohub,2013-04-09 00:57:00,
2013-04-08 21:03:00,65.7,65.3,30.05,South,180,1.0,3.0,99,0.00,,,0.00,meteohub,2013-04-09 01:03:00,
2013-04-08 21:08:00,65.1,64.8,30.06,SW,225,0.0,2.0,99,0.00,,,0.00,meteohub,2013-04-09 01:08:00,
2013-04-08 21:13:00,64.8,64.4,30.06,SE,135,1.0,2.0,99,0.00,,,0.00,meteohub,2013-04-09 01:13:00,
2013-04-08 21:19:00,64.6,64.2,30.06,South,180,0.0,2.0,99,0.00,,,0.00,meteohub,2013-04-09 01:19:00,
2013-04-08 21:24:00,64.0,63.7,30.06,SW,225,0.0,2.0,99,0.00,,,0.00,meteohub,2013-04-09 01:24:00,
2013-04-08 21:29:00,63.7,63.3,30.06,SE,135,0.0,2.0,99,0.00,,,0.00,meteohub,2013-04-09 01:29:00,
2013-04-08 21:35:00,63.3,63.0,30.06,SE,135,0.0,0.0,99,0.00,,,0.00,meteohub,2013-04-09 01:35:00,
2013-04-08 21:40:00,62.8,62.4,30.06,SE,135,0.0,0.0,99,0.00,,,0.00,meteohub,2013-04-09 01:40:00,
2013-04-08 21:45:00,62.6,62.2,30.06,South,180,0.0,0.0,99,0.00,,,0.00,meteohub,2013-04-09 01:45:00,
2013-04-08 21:50:00,62.4,62.1,30.06,South,180,0.0,0.0,99,0.00,,,0.00,meteohub,2013-04-09 01:50:00,
2013-04-08 21:56:00,62.4,62.1,30.07,West,270,2.0,2.0,99,0.00,,,0.00,meteohub,2013-04-09 01:56:00,
2013-04-08 22:02:00,62.2,61.9,30.07,West,270,0.0,2.0,99,0.00,,,0.00,meteohub,2013-04-09 02:02:00,
2013-04-08 22:07:00,61.9,61.5,30.07,West,270,0.0,2.0,99,0.00,,,0.00,meteohub,2013-04-09 02:07:00,
2013-04-08 22:12:00,61.7,61.3,30.07,SE,135,0.0,2.0,99,0.00,,,0.00,meteohub,2013-04-09 02:12:00,
2013-04-08 22:17:00,61.5,61.2,30.07,SE,135,0.0,0.0,99,0.00,,,0.00,meteohub,2013-04-09 02:17:00,
2013-04-08 22:22:00,61.3,61.0,30.07,West,270,0.0,0.0,99,0.00,,,0.00,meteohub,2013-04-09 02:22:00,
2013-04-08 22:27:00,61.2,60.8,30.07,West,270,0.0,0.0,99,0.00,,,0.00,meteohub,2013-04-09 02:27:00,
2013-04-08 22:33:00,61.0,60.6,30.07,West,270,0.0,0.0,99,0.00,,,0.00,meteohub,2013-04-09 02:33:00,
2013-04-08 22:38:00,60.8,60.4,30.07,West,270,0.0,0.0,99,0.00,,,0.00,meteohub,2013-04-09 02:38:00,
2013-04-08 22:43:00,60.4,60.1,30.07,SE,135,0.0,0.0,99,0.00,,,0.00,meteohub,2013-04-09 02:43:00,
2013-04-08 22:49:00,60.6,60.3,30.07,SE,135,0.0,0.0,99,0.00,,,0.00,meteohub,2013-04-09 02:49:00,
2013-04-08 22:54:00,60.6,60.3,30.07,SE,135,0.0,0.0,99,0.00,,,0.00,meteohub,2013-04-09 02:54:00,
2013-04-08 22:59:00,60.4,60.1,30.07,SE,135,0.0,0.0,99,0.00,,,0.00,meteohub,2013-04-09 02:59:00,
2013-04-08 23:04:00,60.3,59.9,30.07,SE,135,0.0,0.0,99,0.00,,,0.00,meteohub,2013-04-09 03:04:00,
2013-04-08 23:10:00,60.1,59.7,30.07,SE,135,0.0,0.0,99,0.00,,,0.00,meteohub,2013-04-09 03:10:00,
2013-04-08 23:15:00,60.1,59.7,30.07,West,270,0.0,1.0,99,0.00,,,0.00,meteohub,2013-04-09 03:15:00,
2013-04-08 23:20:00,60.1,59.7,30.07,West,270,0.0,1.0,99,0.00,,,0.00,meteohub,2013-04-09 03:20:00,
2013-04-08 23:26:00,60.1,59.7,30.07,West,270,0.0,1.0,99,0.00,,,0.00,meteohub,2013-04-09 03:26:00,
2013-04-08 23:31:00,59.9,59.5,30.07,East,90,0.0,0.0,99,0.00,,,0.00,meteohub,2013-04-09 03:31:00,
2013-04-08 23:36:00,59.7,59.4,30.07,East,90,0.0,0.0,99,0.00,,,0.00,meteohub,2013-04-09 03:36:00,
2013-04-08 23:42:00,59.5,59.2,30.07,East,90,0.0,0.0,99,0.00,,,0.00,meteohub,2013-04-09 03:42:00,
2013-04-08 23:47:00,59.4,59.0,30.07,East,90,0.0,0.0,99,0.00,,,0.00,meteohub,2013-04-09 03:47:00,
2013-04-08 23:52:00,59.4,59.0,30.07,East,90,0.0,0.0,99,0.00,,,0.00,meteohub,2013-04-09 03:52:00,
2013-04-08 23:57:00,59.4,59.0,30.07,East,90,0.0,0.0,99,0.00,,,0.00,meteohub,2013-04-09 03:57:00,